Location: Palau
(42.3086°N, 3.1507°E)
Time: 02:00:02
(UTC+00:00)

BREEZE-M DEB (TANK) - Pass Details

Date: 26 May 2020
Orbit: 305 x 15756 km, 49.4° (Epoch: 15 July)

Event Time Altitude Azimuth Distance (km) Brightness Sun altitude
Rises 03:18:59 0° 297° (WNW) 2,234 5.2 -9.5°
Reaches altitude 10° 03:20:56 10° 292° (WNW) 1,205 3.8 -9.3°
Maximum altitude 03:23:03 55° 212° (SSW) 385 1.2 -9.0°
Drops below altitude 10° 03:25:44 10° 132° (SE) 1,529 4.7 -8.6°
Sets 03:28:45 0° 128° (SE) 3,106 6.3 -8.1°
